Time,TemperatureF,DewpointF,PressureIn,WindDirection,WindDirectionDegrees,WindSpeedMPH,WindSpeedGustMPH,Humidity,HourlyPrecipIn,Conditions,Clouds,dailyrainin,SoftwareType,DateUTC
2013-06-28 00:00:00,57.0,53.8,30.06,North,0,0.0,0.0,89,0.00,,,0.00,LWC V1.00 B64,2013-06-28 07:00:00,
2013-06-28 00:05:00,56.9,53.7,30.06,North,0,0.0,0.0,89,0.00,,,0.00,LWC V1.00 B64,2013-06-28 07:05:00,
2013-06-28 00:10:00,56.8,53.6,30.06,North,0,0.0,0.0,89,0.00,,,0.00,LWC V1.00 B64,2013-06-28 07:10:00,
2013-06-28 00:15:00,56.7,53.5,30.06,North,0,0.0,0.0,89,0.00,,,0.00,LWC V1.00 B64,2013-06-28 07:15:00,
2013-06-28 00:20:00,56.6,53.4,30.06,North,0,0.0,0.0,89,0.00,,,0.00,LWC V1.00 B64,2013-06-28 07:20:00,
2013-06-28 00:25:00,56.5,53.3,30.06,North,0,0.0,0.0,89,0.00,,,0.00,LWC V1.00 B64,2013-06-28 07:25:00,
2013-06-28 00:30:00,56.4,53.5,30.05,North,0,0.0,0.0,90,0.00,,,0.00,LWC V1.00 B64,2013-06-28 07:30:00,
2013-06-28 00:35:00,56.4,53.5,30.05,North,0,0.0,0.0,90,0.00,,,0.00,LWC V1.00 B64,2013-06-28 07:35:00,
2013-06-28 00:40:00,56.3,53.4,30.05,North,0,0.0,0.0,90,0.00,,,0.00,LWC V1.00 B64,2013-06-28 07:40:00,
2013-06-28 00:45:00,56.2,53.3,30.05,North,0,0.0,0.0,90,0.00,,,0.00,LWC V1.00 B64,2013-06-28 07:45:00,
2013-06-28 00:50:00,56.2,53.3,30.05,North,0,0.0,0.0,90,0.00,,,0.00,LWC V1.00 B64,2013-06-28 07:50:00,
2013-06-28 00:55:00,56.2,53.3,30.05,North,0,0.0,0.0,90,0.00,,,0.00,LWC V1.00 B64,2013-06-28 07:55:00,
2013-06-28 01:00:00,56.2,53.3,30.05,North,0,0.0,0.0,90,0.00,,,0.00,LWC V1.00 B64,2013-06-28 08:00:00,
2013-06-28 01:05:00,56.3,53.4,30.05,North,0,0.0,0.0,90,0.00,,,0.00,LWC V1.00 B64,2013-06-28 08:05:00,
2013-06-28 01:10:00,56.4,53.5,30.05,North,0,0.0,0.0,90,0.00,,,0.00,LWC V1.00 B64,2013-06-28 08:10:00,
2013-06-28 01:15:00,56.2,53.3,30.05,North,0,0.0,0.0,90,0.00,,,0.00,LWC V1.00 B64,2013-06-28 08:15:00,
2013-06-28 01:20:00,56.0,53.1,30.05,North,0,0.0,0.0,90,0.00,,,0.00,LWC V1.00 B64,2013-06-28 08:20:00,
2013-06-28 01:25:00,55.9,53.0,30.05,North,0,0.0,0.0,90,0.00,,,0.00,LWC V1.00 B64,2013-06-28 08:25:00,
2013-06-28 01:30:00,55.9,53.0,30.06,North,0,0.0,0.0,90,0.00,,,0.00,LWC V1.00 B64,2013-06-28 08:30:00,
2013-06-28 01:35:00,55.9,53.0,30.05,North,0,0.0,0.0,90,0.00,,,0.00,LWC V1.00 B64,2013-06-28 08:35:00,
2013-06-28 01:40:00,55.8,52.9,30.05,North,0,0.0,0.0,90,0.00,,,0.00,LWC V1.00 B64,2013-06-28 08:40:00,
2013-06-28 01:45:00,55.8,52.9,30.05,North,0,0.0,0.0,90,0.00,,,0.00,LWC V1.00 B64,2013-06-28 08:45:00,
2013-06-28 01:50:00,55.7,52.8,30.05,North,0,0.0,0.0,90,0.00,,,0.00,LWC V1.00 B64,2013-06-28 08:50:00,
2013-06-28 01:55:00,55.7,52.8,30.05,North,0,0.0,0.0,90,0.00,,,0.00,LWC V1.00 B64,2013-06-28 08:55:00,
2013-06-28 02:00:00,55.7,52.8,30.05,North,0,0.0,0.0,90,0.00,,,0.00,LWC V1.00 B64,2013-06-28 09:00:00,
2013-06-28 02:05:00,55.7,52.8,30.05,North,0,0.0,0.0,90,0.00,,,0.00,LWC V1.00 B64,2013-06-28 09:05:00,
2013-06-28 02:10:00,55.7,52.8,30.05,North,0,0.0,0.0,90,0.00,,,0.00,LWC V1.00 B64,2013-06-28 09:10:00,
2013-06-28 02:15:00,55.5,52.6,30.05,North,0,0.0,0.0,90,0.00,,,0.00,LWC V1.00 B64,2013-06-28 09:15:00,
2013-06-28 02:20:00,55.4,52.5,30.05,North,0,0.0,0.0,90,0.00,,,0.00,LWC V1.00 B64,2013-06-28 09:20:00,
2013-06-28 02:25:00,55.3,52.4,30.05,North,0,0.0,0.0,90,0.00,,,0.00,LWC V1.00 B64,2013-06-28 09:25:00,
2013-06-28 02:30:00,55.3,52.4,30.04,North,0,0.0,0.0,90,0.00,,,0.00,LWC V1.00 B64,2013-06-28 09:30:00,
2013-06-28 02:35:00,55.2,52.3,30.04,North,0,0.0,0.0,90,0.00,,,0.00,LWC V1.00 B64,2013-06-28 09:35:00,
2013-06-28 02:40:00,55.0,52.1,30.04,North,0,0.0,0.0,90,0.00,,,0.00,LWC V1.00 B64,2013-06-28 09:40:00,
2013-06-28 02:45:00,54.9,52.0,30.04,North,0,0.0,0.0,90,0.00,,,0.00,LWC V1.00 B64,2013-06-28 09:45:00,
2013-06-28 02:50:00,54.7,51.8,30.04,North,0,0.0,0.0,90,0.00,,,0.00,LWC V1.00 B64,2013-06-28 09:50:00,
2013-06-28 02:55:00,54.7,51.8,30.04,North,0,0.0,0.0,90,0.00,,,0.00,LWC V1.00 B64,2013-06-28 09:55:00,
2013-06-28 03:00:00,54.8,52.2,30.04,North,0,0.0,0.0,91,0.00,,,0.00,LWC V1.00 B64,2013-06-28 10:00:00,
2013-06-28 03:06:00,55.0,52.4,30.03,North,0,0.0,0.0,91,0.00,,,0.00,LWC V1.00 B64,2013-06-28 10:06:00,
2013-06-28 03:11:00,55.2,52.6,30.03,North,0,0.0,0.0,91,0.00,,,0.00,LWC V1.00 B64,2013-06-28 10:11:00,
2013-06-28 03:16:00,55.1,52.5,30.03,North,0,0.0,0.0,91,0.00,,,0.00,LWC V1.00 B64,2013-06-28 10:16:00,
2013-06-28 03:21:00,54.9,52.0,30.03,North,0,0.0,0.0,90,0.00,,,0.00,LWC V1.00 B64,2013-06-28 10:21:00,
2013-06-28 03:26:00,55.0,52.4,30.03,North,0,0.0,0.0,91,0.00,,,0.00,LWC V1.00 B64,2013-06-28 10:26:00,
2013-06-28 03:31:00,55.1,52.5,30.03,North,0,0.0,0.0,91,0.00,,,0.00,LWC V1.00 B64,2013-06-28 10:31:00,
2013-06-28 03:36:00,55.1,52.5,30.03,North,0,0.0,0.0,91,0.00,,,0.00,LWC V1.00 B64,2013-06-28 10:36:00,
2013-06-28 03:41:00,55.1,52.5,30.03,North,0,0.0,0.0,91,0.00,,,0.00,LWC V1.00 B64,2013-06-28 10:41:00,
2013-06-28 03:46:00,55.3,52.7,30.03,North,0,0.0,0.0,91,0.00,,,0.00,LWC V1.00 B64,2013-06-28 10:46:00,
2013-06-28 03:51:00,55.4,52.8,30.03,North,0,0.0,0.0,91,0.00,,,0.00,LWC V1.00 B64,2013-06-28 10:51:00,
2013-06-28 03:56:00,55.4,52.8,30.03,North,0,0.0,0.0,91,0.00,,,0.00,LWC V1.00 B64,2013-06-28 10:56:00,
2013-06-28 04:01:00,55.3,52.7,30.03,North,0,0.0,0.0,91,0.00,,,0.00,LWC V1.00 B64,2013-06-28 11:01:00,
2013-06-28 04:06:00,55.2,52.6,30.02,North,0,0.0,0.0,91,0.00,,,0.00,LWC V1.00 B64,2013-06-28 11:06:00,
2013-06-28 04:11:00,55.1,52.5,30.02,North,0,0.0,0.0,91,0.00,,,0.00,LWC V1.00 B64,2013-06-28 11:11:00,
2013-06-28 04:16:00,55.0,52.4,30.03,North,0,0.0,0.0,91,0.00,,,0.00,LWC V1.00 B64,2013-06-28 11:16:00,
2013-06-28 04:21:00,54.9,52.3,30.02,North,0,0.0,0.0,91,0.00,,,0.00,LWC V1.00 B64,2013-06-28 11:21:00,
2013-06-28 04:26:00,54.9,52.3,30.02,North,0,0.0,0.0,91,0.00,,,0.00,LWC V1.00 B64,2013-06-28 11:26:00,
2013-06-28 04:31:00,54.9,52.3,30.02,North,0,0.0,0.0,91,0.00,,,0.00,LWC V1.00 B64,2013-06-28 11:31:00,
2013-06-28 04:36:00,54.9,52.3,30.02,North,0,0.0,0.0,91,0.00,,,0.00,LWC V1.00 B64,2013-06-28 11:36:00,
2013-06-28 04:41:00,55.1,52.5,30.02,North,0,0.0,0.0,91,0.00,,,0.00,LWC V1.00 B64,2013-06-28 11:41:00,
2013-06-28 04:46:00,55.3,52.7,30.02,North,0,0.0,0.0,91,0.00,,,0.00,LWC V1.00 B64,2013-06-28 11:46:00,
2013-06-28 04:51:00,55.3,52.7,30.02,North,0,0.0,0.0,91,0.00,,,0.00,LWC V1.00 B64,2013-06-28 11:51:00,
2013-06-28 04:56:00,55.4,52.8,30.02,North,0,0.0,0.0,91,0.00,,,0.00,LWC V1.00 B64,2013-06-28 11:56:00,
2013-06-28 05:01:00,55.5,52.9,30.02,North,0,0.0,0.0,91,0.00,,,0.00,LWC V1.00 B64,2013-06-28 12:01:00,
2013-06-28 05:06:00,55.8,53.2,30.02,North,0,0.0,0.0,91,0.00,,,0.00,LWC V1.00 B64,2013-06-28 12:06:00,
2013-06-28 05:11:00,55.9,53.3,30.02,North,0,0.0,0.0,91,0.00,,,0.00,LWC V1.00 B64,2013-06-28 12:11:00,
2013-06-28 05:16:00,56.0,53.4,30.02,North,0,0.0,0.0,91,0.00,,,0.00,LWC V1.00 B64,2013-06-28 12:16:00,
2013-06-28 05:21:00,56.0,53.4,30.02,North,0,0.0,0.0,91,0.00,,,0.00,LWC V1.00 B64,2013-06-28 12:21:00,
2013-06-28 05:26:00,56.0,53.4,30.01,North,0,0.0,0.0,91,0.00,,,0.00,LWC V1.00 B64,2013-06-28 12:26:00,
2013-06-28 05:31:00,56.0,53.4,30.01,North,0,0.0,0.0,91,0.00,,,0.00,LWC V1.00 B64,2013-06-28 12:31:00,
2013-06-28 05:36:00,56.0,53.4,30.01,North,0,0.0,0.0,91,0.00,,,0.00,LWC V1.00 B64,2013-06-28 12:36:00,
2013-06-28 05:41:00,56.0,53.4,30.01,North,0,0.0,0.0,91,0.00,,,0.00,LWC V1.00 B64,2013-06-28 12:41:00,
2013-06-28 05:46:00,55.9,53.3,30.01,North,0,0.0,0.0,91,0.00,,,0.00,LWC V1.00 B64,2013-06-28 12:46:00,
2013-06-28 05:51:00,55.9,53.3,30.01,North,0,0.0,0.0,91,0.00,,,0.00,LWC V1.00 B64,2013-06-28 12:51:00,
2013-06-28 05:56:00,55.9,53.3,30.02,North,0,0.0,0.0,91,0.00,,,0.00,LWC V1.00 B64,2013-06-28 12:56:00,
2013-06-28 06:01:00,55.8,53.2,30.02,North,0,0.0,0.0,91,0.00,,,0.00,LWC V1.00 B64,2013-06-28 13:01:00,
2013-06-28 06:06:00,55.7,53.1,30.02,North,0,0.0,0.0,91,0.00,,,0.00,LWC V1.00 B64,2013-06-28 13:06:00,
2013-06-28 06:11:00,55.7,53.1,30.02,North,0,0.0,0.0,91,0.00,,,0.00,LWC V1.00 B64,2013-06-28 13:11:00,
2013-06-28 06:16:00,55.6,53.0,30.02,North,0,0.0,0.0,91,0.00,,,0.00,LWC V1.00 B64,2013-06-28 13:16:00,
2013-06-28 06:21:00,55.7,53.1,30.02,North,0,0.0,0.0,91,0.00,,,0.00,LWC V1.00 B64,2013-06-28 13:21:00,
2013-06-28 06:26:00,55.6,53.0,30.02,North,0,0.0,0.0,91,0.00,,,0.00,LWC V1.00 B64,2013-06-28 13:26:00,
2013-06-28 06:31:00,55.6,53.0,30.02,North,0,0.0,0.0,91,0.00,,,0.00,LWC V1.00 B64,2013-06-28 13:31:00,
2013-06-28 06:36:00,55.6,53.0,30.02,North,0,0.0,0.0,91,0.00,,,0.00,LWC V1.00 B64,2013-06-28 13:36:00,
2013-06-28 06:41:00,55.4,52.8,30.02,North,0,0.0,0.0,91,0.00,,,0.00,LWC V1.00 B64,2013-06-28 13:41:00,
2013-06-28 06:46:00,55.3,52.7,30.02,North,0,0.0,0.0,91,0.00,,,0.00,LWC V1.00 B64,2013-06-28 13:46:00,
2013-06-28 06:51:00,55.2,52.6,30.02,North,0,0.0,0.0,91,0.00,,,0.00,LWC V1.00 B64,2013-06-28 13:51:00,
2013-06-28 06:56:00,55.2,52.6,30.02,North,0,0.0,0.0,91,0.00,,,0.00,LWC V1.00 B64,2013-06-28 13:56:00,
2013-06-28 07:01:00,55.2,52.6,30.02,North,0,0.0,0.0,91,0.00,,,0.00,LWC V1.00 B64,2013-06-28 14:01:00,
2013-06-28 07:06:00,55.3,52.7,30.02,North,0,0.0,0.0,91,0.00,,,0.00,LWC V1.00 B64,2013-06-28 14:06:00,
2013-06-28 07:11:00,55.3,52.7,30.02,North,0,0.0,0.0,91,0.00,,,0.00,LWC V1.00 B64,2013-06-28 14:11:00,
2013-06-28 07:16:00,55.3,52.7,30.02,North,0,0.0,0.0,91,0.00,,,0.00,LWC V1.00 B64,2013-06-28 14:16:00,
2013-06-28 07:21:00,55.4,53.1,30.02,North,0,0.0,0.0,92,0.00,,,0.00,LWC V1.00 B64,2013-06-28 14:21:00,
2013-06-28 07:26:00,55.5,53.2,30.02,North,0,0.0,0.0,92,0.00,,,0.00,LWC V1.00 B64,2013-06-28 14:26:00,
2013-06-28 07:31:00,55.8,53.5,30.02,North,0,0.0,0.0,92,0.00,,,0.00,LWC V1.00 B64,2013-06-28 14:31:00,
2013-06-28 07:36:00,56.0,53.7,30.02,North,0,0.0,0.0,92,0.00,,,0.00,LWC V1.00 B64,2013-06-28 14:36:00,
2013-06-28 07:41:00,56.2,53.9,30.02,North,0,0.0,0.0,92,0.00,,,0.00,LWC V1.00 B64,2013-06-28 14:41:00,
2013-06-28 07:46:00,56.4,54.1,30.02,North,0,0.0,0.0,92,0.00,,,0.00,LWC V1.00 B64,2013-06-28 14:46:00,
2013-06-28 07:51:00,56.7,54.4,30.02,North,0,0.0,0.0,92,0.00,,,0.00,LWC V1.00 B64,2013-06-28 14:51:00,
2013-06-28 07:56:00,57.1,54.8,30.02,North,0,0.0,0.0,92,0.00,,,0.00,LWC V1.00 B64,2013-06-28 14:56:00,
2013-06-28 08:01:00,57.7,55.4,30.02,North,0,0.0,0.0,92,0.00,,,0.00,LWC V1.00 B64,2013-06-28 15:01:00,
2013-06-28 08:06:00,58.1,55.8,30.02,North,0,0.0,0.0,92,0.00,,,0.00,LWC V1.00 B64,2013-06-28 15:06:00,
2013-06-28 08:11:00,58.4,56.1,30.02,North,0,0.0,0.0,92,0.00,,,0.00,LWC V1.00 B64,2013-06-28 15:11:00,
2013-06-28 08:16:00,58.7,56.4,30.02,North,0,0.0,0.0,92,0.00,,,0.00,LWC V1.00 B64,2013-06-28 15:16:00,
2013-06-28 08:21:00,59.0,56.7,30.02,North,0,0.0,0.0,92,0.00,,,0.00,LWC V1.00 B64,2013-06-28 15:21:00,
2013-06-28 08:26:00,59.4,57.1,30.02,North,0,0.0,0.0,92,0.00,,,0.00,LWC V1.00 B64,2013-06-28 15:26:00,
2013-06-28 08:31:00,59.8,57.5,30.02,North,0,0.0,0.0,92,0.00,,,0.00,LWC V1.00 B64,2013-06-28 15:31:00,
2013-06-28 08:36:00,60.2,57.9,30.02,North,0,0.0,0.0,92,0.00,,,0.00,LWC V1.00 B64,2013-06-28 15:36:00,
2013-06-28 08:41:00,60.5,58.2,30.02,North,0,0.0,0.0,92,0.00,,,0.00,LWC V1.00 B64,2013-06-28 15:41:00,
2013-06-28 08:46:00,61.1,58.8,30.02,North,0,0.0,0.0,92,0.00,,,0.00,LWC V1.00 B64,2013-06-28 15:46:00,
2013-06-28 08:51:00,61.6,59.2,30.02,North,0,0.0,0.0,92,0.00,,,0.00,LWC V1.00 B64,2013-06-28 15:51:00,
2013-06-28 08:57:00,62.0,59.3,30.02,North,0,0.0,0.0,91,0.00,,,0.00,LWC V1.00 B64,2013-06-28 15:57:00,
2013-06-28 09:02:00,62.5,59.8,30.02,North,0,0.0,0.0,91,0.00,,,0.00,LWC V1.00 B64,2013-06-28 16:02:00,
2013-06-28 09:07:00,63.0,60.0,30.02,North,355,0.0,0.0,90,0.00,,,0.00,LWC V1.00 B64,2013-06-28 16:07:00,
2013-06-28 09:12:00,63.7,60.4,30.02,North,349,0.0,0.0,89,0.00,,,0.00,LWC V1.00 B64,2013-06-28 16:12:00,
2013-06-28 09:17:00,64.3,60.7,30.02,North,349,0.0,0.0,88,0.00,,,0.00,LWC V1.00 B64,2013-06-28 16:17:00,
2013-06-28 09:22:00,64.9,60.9,30.02,NNW,347,0.0,0.0,87,0.00,,,0.00,LWC V1.00 B64,2013-06-28 16:22:00,
2013-06-28 09:27:00,65.4,61.1,30.02,NNW,344,0.0,0.0,86,0.00,,,0.00,LWC V1.00 B64,2013-06-28 16:27:00,
2013-06-28 09:33:00,65.8,60.8,30.01,NNW,341,5.0,7.0,84,0.00,,,0.00,LWC V1.00 B64,2013-06-28 16:33:00,
2013-06-28 09:38:00,66.1,61.1,30.01,NNW,341,2.0,5.0,84,0.00,,,0.00,LWC V1.00 B64,2013-06-28 16:38:00,
2013-06-28 09:43:00,66.5,61.2,30.01,NNW,343,6.0,6.0,83,0.00,,,0.00,LWC V1.00 B64,2013-06-28 16:43:00,
2013-06-28 09:48:00,67.0,61.3,30.01,NNW,346,3.0,6.0,82,0.00,,,0.00,LWC V1.00 B64,2013-06-28 16:48:00,
2013-06-28 09:53:00,67.5,61.8,30.01,NNW,340,3.0,6.0,82,0.00,,,0.00,LWC V1.00 B64,2013-06-28 16:53:00,
2013-06-28 09:59:00,68.1,62.0,30.01,North,355,2.0,4.0,81,0.00,,,0.00,LWC V1.00 B64,2013-06-28 16:59:00,
2013-06-28 10:04:00,68.2,61.8,30.01,NNW,346,5.0,7.0,80,0.00,,,0.00,LWC V1.00 B64,2013-06-28 17:04:00,
2013-06-28 10:09:00,68.5,62.1,30.01,NNW,346,1.0,5.0,80,0.00,,,0.00,LWC V1.00 B64,2013-06-28 17:09:00,
2013-06-28 10:14:00,69.1,62.3,30.01,NNW,341,3.0,6.0,79,0.00,,,0.00,LWC V1.00 B64,2013-06-28 17:14:00,
2013-06-28 10:19:00,69.7,62.9,30.00,NNW,327,5.0,10.0,79,0.00,,,0.00,LWC V1.00 B64,2013-06-28 17:19:00,
2013-06-28 10:24:00,70.0,62.8,30.00,NNW,342,6.0,7.0,78,0.00,,,0.00,LWC V1.00 B64,2013-06-28 17:24:00,
2013-06-28 10:29:00,70.2,63.0,30.00,NNW,331,3.0,9.0,78,0.00,,,0.00,LWC V1.00 B64,2013-06-28 17:29:00,
2013-06-28 10:34:00,70.4,62.5,30.00,North,5,6.0,12.0,76,0.00,,,0.00,LWC V1.00 B64,2013-06-28 17:34:00,
2013-06-28 10:39:00,70.8,63.2,30.00,NNW,348,7.0,9.0,77,0.00,,,0.00,LWC V1.00 B64,2013-06-28 17:39:00,
2013-06-28 10:44:00,71.1,63.5,30.00,NNW,344,3.0,11.0,77,0.00,,,0.00,LWC V1.00 B64,2013-06-28 17:44:00,
2013-06-28 10:49:00,71.1,63.1,30.00,NNW,340,4.0,12.0,76,0.00,,,0.00,LWC V1.00 B64,2013-06-28 17:49:00,
2013-06-28 10:54:00,71.3,62.6,30.00,North,349,9.0,12.0,74,0.00,,,0.00,LWC V1.00 B64,2013-06-28 17:54:00,
2013-06-28 10:59:00,71.3,63.0,30.00,North,351,6.0,11.0,75,0.00,,,0.00,LWC V1.00 B64,2013-06-28 17:59:00,
2013-06-28 11:04:00,71.5,62.8,30.01,NNW,348,6.0,10.0,74,0.00,,,0.00,LWC V1.00 B64,2013-06-28 18:04:00,
2013-06-28 11:09:00,71.8,63.1,30.00,NNW,342,5.0,9.0,74,0.00,,,0.00,LWC V1.00 B64,2013-06-28 18:09:00,
2013-06-28 11:14:00,71.4,62.3,30.00,NNW,348,9.0,13.0,73,0.00,,,0.00,LWC V1.00 B64,2013-06-28 18:14:00,
2013-06-28 11:19:00,71.3,62.6,30.01,North,355,10.0,12.0,74,0.00,,,0.00,LWC V1.00 B64,2013-06-28 18:19:00,
2013-06-28 11:24:00,71.3,62.2,30.01,North,9,7.0,13.0,73,0.00,,,0.00,LWC V1.00 B64,2013-06-28 18:24:00,
2013-06-28 11:29:00,71.5,62.8,30.00,NNW,344,9.0,12.0,74,0.00,,,0.00,LWC V1.00 B64,2013-06-28 18:29:00,
2013-06-28 11:34:00,71.3,62.2,30.00,NNW,336,7.0,12.0,73,0.00,,,0.00,LWC V1.00 B64,2013-06-28 18:34:00,
2013-06-28 11:39:00,71.5,63.1,30.00,NNW,338,2.0,10.0,75,0.00,,,0.00,LWC V1.00 B64,2013-06-28 18:39:00,
2013-06-28 11:44:00,71.7,62.6,30.00,North,0,5.0,10.0,73,0.00,,,0.00,LWC V1.00 B64,2013-06-28 18:44:00,
2013-06-28 11:49:00,72.1,63.0,30.00,North,350,5.0,12.0,73,0.00,,,0.00,LWC V1.00 B64,2013-06-28 18:49:00,
2013-06-28 11:54:00,72.0,62.5,30.00,NNW,331,7.0,12.0,72,0.00,,,0.00,LWC V1.00 B64,2013-06-28 18:54:00,
2013-06-28 11:59:00,72.2,63.0,30.00,NNW,348,11.0,14.0,73,0.00,,,0.00,LWC V1.00 B64,2013-06-28 18:59:00,
2013-06-28 12:04:00,71.7,62.6,30.00,North,0,14.0,14.0,73,0.00,,,0.00,LWC V1.00 B64,2013-06-28 19:04:00,
2013-06-28 12:09:00,71.5,62.4,30.01,North,355,11.0,12.0,73,0.00,,,0.00,LWC V1.00 B64,2013-06-28 19:09:00,
2013-06-28 12:14:00,71.1,61.6,30.01,North,355,9.0,14.0,72,0.00,,,0.00,LWC V1.00 B64,2013-06-28 19:14:00,
2013-06-28 12:19:00,71.0,61.9,30.01,NNW,337,10.0,12.0,73,0.00,,,0.00,LWC V1.00 B64,2013-06-28 19:19:00,
2013-06-28 12:24:00,70.5,61.4,30.01,North,9,9.0,17.0,73,0.00,,,0.00,LWC V1.00 B64,2013-06-28 19:24:00,
2013-06-28 12:29:00,69.8,60.7,30.01,NW,322,11.0,13.0,73,0.00,,,0.00,LWC V1.00 B64,2013-06-28 19:29:00,
2013-06-28 12:34:00,68.8,60.2,30.01,NNE,14,11.0,17.0,74,0.00,,,0.00,LWC V1.00 B64,2013-06-28 19:34:00,
2013-06-28 12:39:00,68.3,60.1,30.01,North,5,13.0,18.0,75,0.00,,,0.00,LWC V1.00 B64,2013-06-28 19:39:00,
2013-06-28 12:44:00,68.1,60.2,30.01,North,350,9.0,18.0,76,0.00,,,0.00,LWC V1.00 B64,2013-06-28 19:44:00,
2013-06-28 12:49:00,67.5,59.7,30.01,North,355,7.0,14.0,76,0.00,,,0.00,LWC V1.00 B64,2013-06-28 19:49:00,
2013-06-28 12:54:00,67.4,59.9,30.01,North,9,10.0,14.0,77,0.00,,,0.00,LWC V1.00 B64,2013-06-28 19:54:00,
2013-06-28 12:59:00,67.4,59.9,30.01,NNW,347,7.0,16.0,77,0.00,,,0.00,LWC V1.00 B64,2013-06-28 19:59:00,
2013-06-28 13:04:00,67.8,60.7,30.01,NNW,338,11.0,16.0,78,0.00,,,0.00,LWC V1.00 B64,2013-06-28 20:04:00,
2013-06-28 13:09:00,67.9,60.0,30.01,North,0,11.0,13.0,76,0.00,,,0.00,LWC V1.00 B64,2013-06-28 20:09:00,
2013-06-28 13:14:00,68.0,60.1,30.01,North,5,10.0,15.0,76,0.00,,,0.00,LWC V1.00 B64,2013-06-28 20:14:00,
2013-06-28 13:19:00,68.2,60.3,30.01,North,0,15.0,16.0,76,0.00,,,0.00,LWC V1.00 B64,2013-06-28 20:19:00,
2013-06-28 13:24:00,67.4,59.9,30.01,NNW,340,14.0,16.0,77,0.00,,,0.00,LWC V1.00 B64,2013-06-28 20:24:00,
2013-06-28 13:29:00,67.9,60.4,30.01,NNW,342,7.0,10.0,77,0.00,,,0.00,LWC V1.00 B64,2013-06-28 20:29:00,
2013-06-28 13:35:00,68.3,60.4,30.01,NNW,344,7.0,13.0,76,0.00,,,0.00,LWC V1.00 B64,2013-06-28 20:35:00,
2013-06-28 13:40:00,68.4,60.2,30.01,NNW,345,5.0,12.0,75,0.00,,,0.00,LWC V1.00 B64,2013-06-28 20:40:00,
2013-06-28 13:45:00,68.4,60.5,30.01,North,355,5.0,11.0,76,0.00,,,0.00,LWC V1.00 B64,2013-06-28 20:45:00,
2013-06-28 13:51:00,68.3,60.8,30.01,North,11,4.0,12.0,77,0.00,,,0.00,LWC V1.00 B64,2013-06-28 20:51:00,
2013-06-28 13:57:00,68.6,60.7,30.00,North,5,6.0,10.0,76,0.00,,,0.00,LWC V1.00 B64,2013-06-28 20:57:00,
2013-06-28 14:02:00,68.6,60.3,30.00,North,0,10.0,13.0,75,0.00,,,0.00,LWC V1.00 B64,2013-06-28 21:02:00,
2013-06-28 14:07:00,69.0,60.7,30.00,NNE,12,5.0,12.0,75,0.00,,,0.00,LWC V1.00 B64,2013-06-28 21:07:00,
2013-06-28 14:12:00,69.2,60.9,30.00,NNE,14,6.0,13.0,75,0.00,,,0.00,LWC V1.00 B64,2013-06-28 21:12:00,
2013-06-28 14:17:00,69.6,61.3,30.00,NW,321,6.0,13.0,75,0.00,,,0.00,LWC V1.00 B64,2013-06-28 21:17:00,
2013-06-28 14:18:00,69.8,61.9,30.00,North,10,4.0,11.0,76,0.00,,,0.00,LWC V1.00 B64,2013-06-28 21:18:00,
2013-06-28 14:23:00,70.7,62.4,30.00,NNW,336,6.0,12.0,75,0.00,,,0.00,LWC V1.00 B64,2013-06-28 21:23:00,
2013-06-28 14:28:00,70.2,61.5,30.00,NW,317,9.0,11.0,74,0.00,,,0.00,LWC V1.00 B64,2013-06-28 21:28:00,
2013-06-28 14:33:00,70.1,61.8,30.00,NNW,337,6.0,12.0,75,0.00,,,0.00,LWC V1.00 B64,2013-06-28 21:33:00,
2013-06-28 14:38:00,70.4,61.7,30.00,NNE,18,8.0,14.0,74,0.00,,,0.00,LWC V1.00 B64,2013-06-28 21:38:00,
2013-06-28 14:43:00,70.7,61.6,30.00,NNW,344,6.0,13.0,73,0.00,,,0.00,LWC V1.00 B64,2013-06-28 21:43:00,
2013-06-28 14:48:00,71.2,62.1,29.99,NW,326,10.0,12.0,73,0.00,,,0.00,LWC V1.00 B64,2013-06-28 21:48:00,
2013-06-28 14:53:00,71.5,62.4,29.99,North,0,3.0,10.0,73,0.00,,,0.00,LWC V1.00 B64,2013-06-28 21:53:00,
2013-06-28 14:58:00,71.6,62.1,29.99,North,0,3.0,13.0,72,0.00,,,0.00,LWC V1.00 B64,2013-06-28 21:58:00,
2013-06-28 15:03:00,71.2,61.3,29.99,North,355,4.0,13.0,71,0.00,,,0.00,LWC V1.00 B64,2013-06-28 22:03:00,
2013-06-28 15:08:00,70.7,61.6,29.98,North,5,7.0,15.0,73,0.00,,,0.00,LWC V1.00 B64,2013-06-28 22:08:00,
2013-06-28 15:13:00,70.6,61.5,29.98,North,9,5.0,11.0,73,0.00,,,0.00,LWC V1.00 B64,2013-06-28 22:13:00,
2013-06-28 15:18:00,71.1,62.0,29.98,NNW,334,12.0,12.0,73,0.00,,,0.00,LWC V1.00 B64,2013-06-28 22:18:00,
2013-06-28 15:23:00,71.5,62.0,29.98,NNW,342,9.0,10.0,72,0.00,,,0.00,LWC V1.00 B64,2013-06-28 22:23:00,
2013-06-28 15:28:00,72.0,62.1,29.98,North,10,7.0,14.0,71,0.00,,,0.00,LWC V1.00 B64,2013-06-28 22:28:00,
2013-06-28 15:33:00,71.9,62.0,29.98,North,355,4.0,12.0,71,0.00,,,0.00,LWC V1.00 B64,2013-06-28 22:33:00,
2013-06-28 15:38:00,71.8,61.9,29.98,NNE,17,8.0,11.0,71,0.00,,,0.00,LWC V1.00 B64,2013-06-28 22:38:00,
2013-06-28 15:43:00,71.9,61.6,29.98,North,351,7.0,12.0,70,0.00,,,0.00,LWC V1.00 B64,2013-06-28 22:43:00,
2013-06-28 15:48:00,71.3,61.0,29.98,NNW,333,11.0,11.0,70,0.00,,,0.00,LWC V1.00 B64,2013-06-28 22:48:00,
2013-06-28 15:53:00,71.4,61.9,29.97,NNW,347,5.0,7.0,72,0.00,,,0.00,LWC V1.00 B64,2013-06-28 22:53:00,
2013-06-28 15:58:00,71.6,61.3,29.97,NNW,335,9.0,11.0,70,0.00,,,0.00,LWC V1.00 B64,2013-06-28 22:58:00,
2013-06-28 16:03:00,71.2,61.3,29.97,NNW,345,6.0,11.0,71,0.00,,,0.00,LWC V1.00 B64,2013-06-28 23:03:00,
2013-06-28 16:09:00,71.1,61.2,29.97,NNE,15,9.0,10.0,71,0.00,,,0.00,LWC V1.00 B64,2013-06-28 23:09:00,
2013-06-28 16:14:00,71.3,61.0,29.96,NNW,346,9.0,9.0,70,0.00,,,0.00,LWC V1.00 B64,2013-06-28 23:14:00,
2013-06-28 16:19:00,71.5,61.2,29.96,North,9,5.0,9.0,70,0.00,,,0.00,LWC V1.00 B64,2013-06-28 23:19:00,
2013-06-28 16:24:00,71.8,61.1,29.96,NNE,28,3.0,10.0,69,0.00,,,0.00,LWC V1.00 B64,2013-06-28 23:24:00,
2013-06-28 16:29:00,72.0,61.7,29.96,North,0,3.0,7.0,70,0.00,,,0.00,LWC V1.00 B64,2013-06-28 23:29:00,
2013-06-28 16:34:00,72.0,61.3,29.95,NNW,344,6.0,9.0,69,0.00,,,0.00,LWC V1.00 B64,2013-06-28 23:34:00,
2013-06-28 16:39:00,72.4,61.6,29.96,NNW,344,6.0,7.0,69,0.00,,,0.00,LWC V1.00 B64,2013-06-28 23:39:00,
2013-06-28 16:44:00,72.1,61.4,29.95,North,11,4.0,10.0,69,0.00,,,0.00,LWC V1.00 B64,2013-06-28 23:44:00,
2013-06-28 16:49:00,72.1,61.4,29.95,North,355,3.0,6.0,69,0.00,,,0.00,LWC V1.00 B64,2013-06-28 23:49:00,
2013-06-28 16:54:00,72.0,61.3,29.95,NNW,333,6.0,10.0,69,0.00,,,0.00,LWC V1.00 B64,2013-06-28 23:54:00,
2013-06-28 16:59:00,71.8,60.7,29.95,NNW,347,6.0,11.0,68,0.00,,,0.00,LWC V1.00 B64,2013-06-28 23:59:00,
2013-06-28 17:04:00,71.8,61.1,29.95,North,5,3.0,6.0,69,0.00,,,0.00,LWC V1.00 B64,2013-06-29 00:04:00,
2013-06-28 17:09:00,72.0,60.8,29.95,North,5,7.0,7.0,68,0.00,,,0.00,LWC V1.00 B64,2013-06-29 00:09:00,
2013-06-28 17:14:00,71.8,60.7,29.95,North,355,4.0,9.0,68,0.00,,,0.00,LWC V1.00 B64,2013-06-29 00:14:00,
2013-06-28 17:19:00,72.1,60.5,29.95,North,355,4.0,6.0,67,0.00,,,0.00,LWC V1.00 B64,2013-06-29 00:19:00,
2013-06-28 17:24:00,72.2,60.6,29.95,North,0,4.0,8.0,67,0.00,,,0.00,LWC V1.00 B64,2013-06-29 00:24:00,
2013-06-28 17:29:00,72.0,60.0,29.95,North,10,4.0,8.0,66,0.00,,,0.00,LWC V1.00 B64,2013-06-29 00:29:00,
2013-06-28 17:34:00,72.0,60.4,29.95,North,0,7.0,10.0,67,0.00,,,0.00,LWC V1.00 B64,2013-06-29 00:34:00,
2013-06-28 17:39:00,72.1,60.1,29.95,NNW,336,8.0,8.0,66,0.00,,,0.00,LWC V1.00 B64,2013-06-29 00:39:00,
2013-06-28 17:44:00,72.4,60.4,29.95,NNE,17,6.0,7.0,66,0.00,,,0.00,LWC V1.00 B64,2013-06-29 00:44:00,
2013-06-28 17:49:00,72.7,60.2,29.95,NNW,342,6.0,9.0,65,0.00,,,0.00,LWC V1.00 B64,2013-06-29 00:49:00,
2013-06-28 17:54:00,73.0,60.5,29.94,NNW,340,4.0,6.0,65,0.00,,,0.00,LWC V1.00 B64,2013-06-29 00:54:00,
2013-06-28 17:59:00,73.1,59.7,29.95,North,0,5.0,5.0,63,0.00,,,0.00,LWC V1.00 B64,2013-06-29 00:59:00,
2013-06-28 18:04:00,73.0,59.6,29.94,North,0,3.0,7.0,63,0.00,,,0.00,LWC V1.00 B64,2013-06-29 01:04:00,
2013-06-28 18:09:00,72.9,59.5,29.94,North,0,4.0,7.0,63,0.00,,,0.00,LWC V1.00 B64,2013-06-29 01:09:00,
2013-06-28 18:14:00,72.4,59.5,29.94,NNW,348,2.0,10.0,64,0.00,,,0.00,LWC V1.00 B64,2013-06-29 01:14:00,
2013-06-28 18:19:00,72.1,59.7,29.94,North,0,3.0,10.0,65,0.00,,,0.00,LWC V1.00 B64,2013-06-29 01:19:00,
2013-06-28 18:24:00,71.8,59.8,29.94,NNE,13,3.0,8.0,66,0.00,,,0.00,LWC V1.00 B64,2013-06-29 01:24:00,
2013-06-28 18:29:00,71.2,59.2,29.94,North,9,6.0,11.0,66,0.00,,,0.00,LWC V1.00 B64,2013-06-29 01:29:00,
2013-06-28 18:34:00,70.3,59.2,29.94,North,349,5.0,8.0,68,0.00,,,0.00,LWC V1.00 B64,2013-06-29 01:34:00,
2013-06-28 18:39:00,69.1,58.9,29.94,North,10,3.0,11.0,70,0.00,,,0.00,LWC V1.00 B64,2013-06-29 01:39:00,
2013-06-28 18:44:00,68.6,58.8,29.94,North,0,3.0,7.0,71,0.00,,,0.00,LWC V1.00 B64,2013-06-29 01:44:00,
2013-06-28 18:49:00,68.3,58.9,29.94,NNW,340,4.0,7.0,72,0.00,,,0.00,LWC V1.00 B64,2013-06-29 01:49:00,
2013-06-28 18:54:00,68.1,58.7,29.94,North,10,3.0,9.0,72,0.00,,,0.00,LWC V1.00 B64,2013-06-29 01:54:00,
2013-06-28 18:59:00,67.5,58.5,29.94,NNW,331,6.0,6.0,73,0.00,,,0.00,LWC V1.00 B64,2013-06-29 01:59:00,
2013-06-28 19:04:00,67.2,58.2,29.94,North,355,4.0,9.0,73,0.00,,,0.00,LWC V1.00 B64,2013-06-29 02:04:00,
2013-06-28 19:09:00,67.1,58.5,29.94,NNE,12,4.0,6.0,74,0.00,,,0.00,LWC V1.00 B64,2013-06-29 02:09:00,
2013-06-28 19:14:00,66.9,58.3,29.94,North,5,4.0,7.0,74,0.00,,,0.00,LWC V1.00 B64,2013-06-29 02:14:00,
2013-06-28 19:19:00,66.9,58.3,29.94,North,0,3.0,4.0,74,0.00,,,0.00,LWC V1.00 B64,2013-06-29 02:19:00,
2013-06-28 19:24:00,66.7,58.1,29.94,NNW,333,5.0,6.0,74,0.00,,,0.00,LWC V1.00 B64,2013-06-29 02:24:00,
2013-06-28 19:29:00,66.3,58.1,29.94,North,355,2.0,6.0,75,0.00,,,0.00,LWC V1.00 B64,2013-06-29 02:29:00,
2013-06-28 19:34:00,66.1,57.9,29.94,North,0,4.0,7.0,75,0.00,,,0.00,LWC V1.00 B64,2013-06-29 02:34:00,
2013-06-28 19:39:00,65.9,57.7,29.94,North,0,2.0,6.0,75,0.00,,,0.00,LWC V1.00 B64,2013-06-29 02:39:00,
2013-06-28 19:44:00,65.7,57.9,29.94,North,5,2.0,2.0,76,0.00,,,0.00,LWC V1.00 B64,2013-06-29 02:44:00,
2013-06-28 19:49:00,65.6,57.8,29.95,North,5,3.0,5.0,76,0.00,,,0.00,LWC V1.00 B64,2013-06-29 02:49:00,
2013-06-28 19:54:00,65.3,57.5,29.95,North,0,0.0,3.0,76,0.00,,,0.00,LWC V1.00 B64,2013-06-29 02:54:00,
2013-06-28 19:59:00,65.3,57.5,29.95,North,5,3.0,4.0,76,0.00,,,0.00,LWC V1.00 B64,2013-06-29 02:59:00,
2013-06-28 20:05:00,65.0,57.2,29.95,North,10,1.0,4.0,76,0.00,,,0.00,LWC V1.00 B64,2013-06-29 03:05:00,
2013-06-28 20:10:00,64.7,57.3,29.95,North,10,0.0,1.0,77,0.00,,,0.00,LWC V1.00 B64,2013-06-29 03:10:00,
2013-06-28 20:15:00,64.4,57.0,29.95,North,10,0.0,1.0,77,0.00,,,0.00,LWC V1.00 B64,2013-06-29 03:15:00,
2013-06-28 20:20:00,64.2,57.2,29.95,North,10,0.0,1.0,78,0.00,,,0.00,LWC V1.00 B64,2013-06-29 03:20:00,
2013-06-28 20:25:00,64.0,57.0,29.95,North,10,0.0,1.0,78,0.00,,,0.00,LWC V1.00 B64,2013-06-29 03:25:00,
2013-06-28 20:30:00,63.7,56.7,29.95,North,10,0.0,0.0,78,0.00,,,0.00,LWC V1.00 B64,2013-06-29 03:30:00,
2013-06-28 20:35:00,63.4,56.8,29.95,North,10,0.0,1.0,79,0.00,,,0.00,LWC V1.00 B64,2013-06-29 03:35:00,
2013-06-28 20:40:00,63.2,56.6,29.95,North,10,0.0,0.0,79,0.00,,,0.00,LWC V1.00 B64,2013-06-29 03:40:00,
2013-06-28 20:45:00,63.0,56.7,29.96,North,10,0.0,0.0,80,0.00,,,0.00,LWC V1.00 B64,2013-06-29 03:45:00,
2013-06-28 20:50:00,62.7,56.4,29.96,North,10,0.0,0.0,80,0.00,,,0.00,LWC V1.00 B64,2013-06-29 03:50:00,
2013-06-28 20:55:00,62.5,56.2,29.96,North,10,0.0,0.0,80,0.00,,,0.00,LWC V1.00 B64,2013-06-29 03:55:00,
2013-06-28 21:00:00,62.2,55.9,29.96,North,10,0.0,0.0,80,0.00,,,0.00,LWC V1.00 B64,2013-06-29 04:00:00,
2013-06-28 21:01:00,62.1,56.2,29.96,North,10,0.0,1.0,81,0.00,,,0.00,LWC V1.00 B64,2013-06-29 04:01:00,
2013-06-28 21:02:00,62.1,56.2,29.96,North,10,1.0,3.0,81,0.00,,,0.00,LWC V1.00 B64,2013-06-29 04:02:00,
2013-06-28 21:03:00,62.1,56.2,29.96,North,10,0.0,3.0,81,0.00,,,0.00,LWC V1.00 B64,2013-06-29 04:03:00,
2013-06-28 21:08:00,61.8,55.9,29.96,North,10,0.0,1.0,81,0.00,,,0.00,LWC V1.00 B64,2013-06-29 04:08:00,
2013-06-28 21:10:00,61.8,55.9,29.96,North,10,2.0,2.0,81,0.00,,,0.00,LWC V1.00 B64,2013-06-29 04:10:00,
2013-06-28 21:15:00,61.5,55.9,29.96,North,10,0.0,1.0,82,0.00,,,0.00,LWC V1.00 B64,2013-06-29 04:15:00,
2013-06-28 21:17:00,61.4,55.9,29.96,North,10,0.0,0.0,82,0.00,,,0.00,LWC V1.00 B64,2013-06-29 04:17:00,
2013-06-28 21:22:00,61.2,55.7,29.96,North,10,0.0,2.0,82,0.00,,,0.00,LWC V1.00 B64,2013-06-29 04:22:00,
2013-06-28 21:27:00,61.0,55.5,29.96,North,10,0.0,1.0,82,0.00,,,0.00,LWC V1.00 B64,2013-06-29 04:27:00,
2013-06-28 21:32:00,60.8,55.6,29.96,North,10,0.0,0.0,83,0.00,,,0.00,LWC V1.00 B64,2013-06-29 04:32:00,
2013-06-28 21:37:00,60.6,55.4,29.96,North,10,0.0,0.0,83,0.00,,,0.00,LWC V1.00 B64,2013-06-29 04:37:00,
2013-06-28 21:42:00,60.4,55.2,29.96,North,10,0.0,1.0,83,0.00,,,0.00,LWC V1.00 B64,2013-06-29 04:42:00,
2013-06-28 21:47:00,60.2,55.0,29.96,North,10,0.0,0.0,83,0.00,,,0.00,LWC V1.00 B64,2013-06-29 04:47:00,
2013-06-28 21:52:00,60.0,54.8,29.96,North,10,0.0,2.0,83,0.00,,,0.00,LWC V1.00 B64,2013-06-29 04:52:00,
2013-06-28 21:57:00,59.9,55.0,29.96,North,10,0.0,0.0,84,0.00,,,0.00,LWC V1.00 B64,2013-06-29 04:57:00,
2013-06-28 22:02:00,59.9,55.0,29.97,North,10,0.0,0.0,84,0.00,,,0.00,LWC V1.00 B64,2013-06-29 05:02:00,
2013-06-28 22:07:00,59.9,55.0,29.97,North,10,0.0,0.0,84,0.00,,,0.00,LWC V1.00 B64,2013-06-29 05:07:00,
2013-06-28 22:12:00,59.8,55.0,29.96,North,10,0.0,0.0,84,0.00,,,0.00,LWC V1.00 B64,2013-06-29 05:12:00,
2013-06-28 22:17:00,59.7,54.9,29.96,North,10,0.0,0.0,84,0.00,,,0.00,LWC V1.00 B64,2013-06-29 05:17:00,
2013-06-28 22:22:00,59.6,54.8,29.97,North,10,0.0,0.0,84,0.00,,,0.00,LWC V1.00 B64,2013-06-29 05:22:00,
2013-06-28 22:27:00,59.5,54.7,29.96,North,10,0.0,0.0,84,0.00,,,0.00,LWC V1.00 B64,2013-06-29 05:27:00,
2013-06-28 22:32:00,59.3,54.8,29.96,North,10,0.0,0.0,85,0.00,,,0.00,LWC V1.00 B64,2013-06-29 05:32:00,
2013-06-28 22:38:00,59.2,54.7,29.96,North,10,0.0,0.0,85,0.00,,,0.00,LWC V1.00 B64,2013-06-29 05:38:00,
2013-06-28 22:43:00,59.1,54.6,29.96,North,10,0.0,0.0,85,0.00,,,0.00,LWC V1.00 B64,2013-06-29 05:43:00,
2013-06-28 22:48:00,59.0,54.5,29.96,North,10,0.0,0.0,85,0.00,,,0.00,LWC V1.00 B64,2013-06-29 05:48:00,
2013-06-28 22:53:00,58.9,54.4,29.97,North,10,0.0,0.0,85,0.00,,,0.00,LWC V1.00 B64,2013-06-29 05:53:00,
2013-06-28 22:58:00,58.7,54.2,29.97,North,10,0.0,0.0,85,0.00,,,0.00,LWC V1.00 B64,2013-06-29 05:58:00,
2013-06-28 23:03:00,58.6,54.1,29.97,North,10,0.0,0.0,85,0.00,,,0.00,LWC V1.00 B64,2013-06-29 06:03:00,
2013-06-28 23:08:00,58.6,54.1,29.97,North,10,0.0,0.0,85,0.00,,,0.00,LWC V1.00 B64,2013-06-29 06:08:00,
2013-06-28 23:13:00,58.4,53.9,29.96,North,10,0.0,0.0,85,0.00,,,0.00,LWC V1.00 B64,2013-06-29 06:13:00,
2013-06-28 23:18:00,58.3,53.8,29.96,North,10,0.0,0.0,85,0.00,,,0.00,LWC V1.00 B64,2013-06-29 06:18:00,
2013-06-28 23:23:00,58.2,54.0,29.96,North,10,0.0,0.0,86,0.00,,,0.00,LWC V1.00 B64,2013-06-29 06:23:00,
2013-06-28 23:28:00,58.0,53.8,29.96,North,10,0.0,0.0,86,0.00,,,0.00,LWC V1.00 B64,2013-06-29 06:28:00,
2013-06-28 23:33:00,57.9,53.7,29.96,North,10,0.0,0.0,86,0.00,,,0.00,LWC V1.00 B64,2013-06-29 06:33:00,
2013-06-28 23:38:00,57.8,53.6,29.96,North,10,0.0,0.0,86,0.00,,,0.00,LWC V1.00 B64,2013-06-29 06:38:00,
2013-06-28 23:43:00,57.7,53.5,29.96,North,10,0.0,0.0,86,0.00,,,0.00,LWC V1.00 B64,2013-06-29 06:43:00,
2013-06-28 23:48:00,57.6,53.8,29.96,North,10,0.0,0.0,87,0.00,,,0.00,LWC V1.00 B64,2013-06-29 06:48:00,
2013-06-28 23:53:00,57.6,53.8,29.96,North,10,0.0,0.0,87,0.00,,,0.00,LWC V1.00 B64,2013-06-29 06:53:00,
2013-06-28 23:58:00,57.6,53.8,29.96,North,10,0.0,0.0,87,0.00,,,0.00,LWC V1.00 B64,2013-06-29 06:58:00,